Regional Weather Roundup
Issued by NWS

Home | Current Version | Previous Version | Graphics & Text | Print | Product List | Glossary Off
Versions: 1 2 3 4 5 6 7 8 9 10 11 12 13 14 15 16 17 18 19 20 21 22 23 24 25 26 27 28 29 30 31 32 33 34 35 36 37 38 39 40 41 42 43 44 45 46 47 48 49 50

000
ASUS43 KTOP 210159
RWRKS

WEATHER ROUNDUP FOR KANSAS
NATIONAL WEATHER SERVICE GOODLAND KS
900 PM CDT WED AUG 20 2014

NOTE:  "FAIR" INDICATES FEW OR NO CLOUDS BELOW 12,000 FEET WITH NO
SIGNIFICANT WEATHER AND/OR OBSTRUCTIONS TO VISIBILITY.

KSZ001>006-013>018-027>032-041>047-210300-
NORTHWEST KANSAS

CITY           SKY/WX    TMP DP  RH WIND       PRES   REMARKS
GOODLAND       MOCLDY    80  62  54 CALM      29.81R
HAYS           PTCLDY    90  63  40 S15       29.75R
HILL CITY      MOCLDY    90  63  40 S10       29.73R
RUSSELL        PTCLDY    88  63  43 S13       29.74R
$$

KSZ061>065-074>080-084>089-210300-
SOUTHWEST KANSAS

CITY           SKY/WX    TMP DP  RH WIND       PRES   REMARKS
DODGE CITY     CLEAR     87  59  38 S14       29.80R
ELKHART          N/A     82  59  45 S10         N/A
GARDEN CITY    PTCLDY    86  60  41 S15       29.78R
GREAT BEND     CLEAR     88  63  42 S13       29.77R
LIBERAL        CLEAR     90  57  33 S22       29.83R
$$

KSZ066>073-081>083-090>101-210300-
SOUTHEAST KANSAS

CITY           SKY/WX    TMP DP  RH WIND       PRES   REMARKS
CHANUTE        CLEAR     83  67  58 S14       29.87R
COFFEYVILLE    CLEAR     83  69  62 S14       29.87R
HUTCHINSON     PTCLDY    87  64  46 SE15      29.80R
NEWTON         PTCLDY    84  63  48 S14G20    29.86R
PARSONS        CLEAR     84  67  56 S9        29.88R
WICHITA INTL   PTCLDY    86  64  47 S16       29.82R
WICHITA JABRA  PTCLDY    85  65  51 S15G24    29.83R
WINFIELD       CLEAR     84  66  54 S14       29.85R
$$

KSZ007>012-019>026-033>040-048>060-102>105-210300-
NORTHEAST KANSAS

CITY           SKY/WX    TMP DP  RH WIND       PRES   REMARKS
CONCORDIA      PTCLDY    86  69  56 S13G23    29.76R
EMPORIA        PTCLDY    83  67  58 S12       29.83R
LAWRENCE       CLEAR     84  71  65 SE6       29.83R
MANHATTAN      PTCLDY    88  69  53 S8        29.78R
OLATHE IND     CLEAR     83  69  62 S7        29.86R
OLATHE EXE     CLEAR     80  71  74 S8        29.85R
SALINA         CLEAR     88  67  49 S16       29.77R
TOPEKA BILLARD PTCLDY    88  70  55 S10       29.81R
TOPEKA FORBES  PTCLDY    87  68  52 S12       29.82R
$$


USA.gov is the U.S. government's official web portal to all federal, state and local government web resources and services.